Location: Minneapolis
(44.9800°N, 93.2640°W)
Time: 04:50:30
(UTC-05:00)

Iridium 96 - Visible Passes

Search period start: 22 August 2014 00:00
Search period end: 01 September 2014 00:00
Orbit: 776 x 779 km, 86.4° (Epoch: 21 August)

Date Brightness Start Highest point End Pass type
(mag) Time Alt. Az. Time Alt. Az. Time Alt. Az.
22 Aug 7.2 04:29:28 10° SSE 04:34:06 34° E 04:38:46 10° NNE visible
23 Aug 8.0 03:57:12 10° ESE 04:00:51 20° ENE 04:04:30 10° NE visible
23 Aug 5.7 05:36:01 10° SSW 05:41:07 54° W 05:46:15 10° N visible
24 Aug 8.5 03:26:30 10° E 03:27:44 11° ENE 03:28:57 10° ENE visible
24 Aug 5.6 05:02:20 10° S 05:07:32 85° E 05:12:48 10° N visible
25 Aug 6.5 04:29:07 10° SSE 04:34:06 48° E 04:39:06 10° NNE visible
26 Aug 7.4 03:56:27 10° SE 04:00:46 27° E 04:05:07 10° NNE visible
26 Aug 6.1 05:36:27 10° SSW 05:41:18 38° W 05:46:11 10° NNW visible
27 Aug 8.1 03:24:34 10° ESE 03:27:34 16° ENE 03:30:35 10° NE visible
27 Aug 5.5 05:02:28 10° S 05:07:39 69° W 05:12:53 10° N visible
28 Aug 5.8 04:29:37 14° S 04:34:08 68° E 04:39:20 10° N visible
29 Aug 6.8 03:56:45 14° SSE 04:00:44 38° E 04:05:32 10° NNE visible
29 Aug 6.5 05:37:15 11° SW 05:41:32 28° WNW 05:46:00 10° NNW visible
30 Aug 7.7 03:23:51 11° SE 03:27:28 22° E 03:31:23 10° NNE visible
30 Aug 5.8 05:04:21 19° SSW 05:07:49 48° W 05:12:53 10° N visible
31 Aug 8.2 02:52:15 10° E 02:54:18 12° ENE 02:56:22 10° NE visible
31 Aug 5.4 04:31:25 28° S 04:34:13 86° W 04:39:28 10° N visible
